Theta_e
319 319 319 319 319 319 319 319 319 319 319 319 319 320 320 320 320 320 320 320 320 320 320 320 321 321 321 321 322 323 321 322 319 318 321 324 335 344 351 348 345 346 350 336 337 331 332 337 338 339 337 336 336 333 338 341 342 341 331 326 321 324 323 330 328 329 333 330 334 337 339 339 335 341 343 346 343 339 338 338 336 335 336 339 341 342 342 343
319 319 319 319 319 318 318 319 319 319 319 319 319 319 319 320 320 320 320 320 320 320 320 320 320 321 321 321 322 322 321 320 319 319 319 332 345 342 345 350 347 352 346 332 334 331 332 334 336 333 332 331 339 331 338 335 342 336 332 328 321 327 329 335 335 334 333 331 337 339 341 340 337 341 343 338 334 335 334 334 333 332 335 339 341 341 341 342
319 319 319 319 318 318 318 318 318 319 319 319 319 319 319 319 319 319 319 319 319 320 320 320 320 320 321 321 322 322 321 321 323 321 325 341 346 345 345 345 344 350 328 331 335 335 334 334 331 329 329 331 334 328 335 335 338 337 331 324 326 332 333 337 339 337 340 338 337 337 339 340 340 342 345 336 332 335 333 331 332 331 332 335 338 340 340 341
319 319 319 318 318 318 318 318 318 318 318 318 319 319 319 319 319 319 319 319 319 319 320 320 320 320 321 322 322 323 321 321 318 326 337 350 343 343 343 346 348 341 329 334 337 337 336 334 328 327 327 329 333 333 332 335 332 337 332 326 330 335 332 337 341 340 341 342 339 337 340 337 341 342 342 336 332 331 333 336 332 331 333 335 337 338 340 340
319 318 318 318 318 318 318 318 318 318 318 318 318 318 318 318 319 319 319 319 319 319 319 319 320 321 321 322 321 322 321 313 322 331 339 346 344 344 342 343 347 324 329 334 339 338 332 329 325 325 325 326 331 331 330 337 337 336 330 332 333 334 333 339 341 343 340 342 340 339 334 333 342 342 339 337 334 329 333 336 337 336 336 336 337 338 340 339
318 318 318 317 318 318 318 318 318 318 318 318 318 318 318 318 318 318 318 318 318 318 319 319 320 321 322 322 322 320 316 304 324 326 339 347 346 347 342 346 344 323 326 330 337 333 327 326 324 321 320 325 326 325 330 334 339 326 334 331 331 336 336 341 340 342 342 340 339 335 337 341 340 336 341 339 335 336 340 340 339 338 338 339 339 339 338 338
318 317 317 317 317 317 317 317 317 317 317 318 318 317 318 318 317 317 317 318 318 318 319 320 321 321 321 321 320 318 315 314 321 332 348 343 343 340 343 342 340 324 324 328 336 328 324 323 323 320 320 324 327 327 330 332 336 331 327 332 332 335 336 340 339 343 341 341 338 341 344 337 337 332 340 339 342 344 341 341 339 339 340 339 336 337 337 338
317 317 317 318 317 317 317 317 317 317 317 317 317 317 318 318 317 317 317 318 318 318 319 320 321 321 321 319 318 317 317 314 328 337 341 342 337 334 336 324 320 321 325 330 334 326 323 320 320 322 320 322 325 325 329 331 337 332 329 331 330 334 338 340 340 340 343 342 343 343 338 336 339 338 340 342 343 338 338 339 338 338 337 336 336 336 337 337
317 317 317 317 317 316 317 317 317 317 317 317 317 317 317 317 317 317 317 318 319 319 320 320 321 321 322 318 313 311 313 327 330 332 341 330 327 328 323 317 319 320 327 334 338 328 322 319 322 323 319 322 327 323 328 329 327 332 333 331 331 334 337 341 340 342 340 342 342 338 336 338 339 341 338 340 344 344 338 337 337 336 335 334 335 334 335 336
317 317 317 316 316 316 316 317 317 317 317 317 317 317 316 316 316 317 318 318 319 320 320 321 321 321 319 318 318 308 322 329 328 329 323 324 321 320 318 319 320 325 331 336 337 327 320 321 324 326 326 325 326 323 327 329 330 335 333 332 331 334 336 340 340 341 342 342 342 336 335 338 342 339 330 342 345 341 338 335 337 334 333 334 333 333 334 334
317 317 317 317 316 316 316 317 317 317 317 317 317 316 316 316 316 317 318 318 320 321 321 321 321 320 316 318 312 310 329 328 326 322 323 321 320 317 318 321 323 328 334 335 331 326 323 323 328 328 327 322 325 323 325 329 335 332 332 331 328 327 338 337 341 339 341 339 342 339 336 340 340 337 332 339 345 343 337 334 335 334 333 333 333 333 334 334
317 317 317 317 316 316 316 317 317 317 317 316 316 316 315 316 316 316 318 319 321 321 322 322 321 322 319 315 313 315 330 330 330 324 321 322 320 321 324 324 325 330 334 332 327 325 324 324 325 325 318 326 318 325 324 331 333 330 329 322 324 326 332 338 337 338 341 337 340 341 335 332 333 332 337 342 344 339 336 333 334 332 332 332 332 331 333 334
316 316 317 317 317 317 317 317 317 317 316 316 316 316 316 316 315 316 318 320 323 323 322 322 322 323 319 314 315 325 331 332 330 324 323 323 324 325 327 326 326 333 334 328 323 323 323 323 323 319 324 322 320 316 327 330 331 332 328 323 321 320 327 335 339 339 338 339 342 339 318 323 330 336 340 344 343 338 333 332 332 332 332 332 332 331 333 334
317 316 317 317 317 317 317 317 317 317 316 316 315 315 315 315 315 317 320 322 324 323 322 322 323 321 319 316 322 325 332 332 332 326 322 324 321 323 327 330 329 330 330 326 326 325 323 324 322 320 322 319 318 330 324 327 331 323 325 325 317 316 321 334 333 333 332 340 340 336 317 324 331 336 341 344 344 337 331 331 332 332 332 332 331 332 333 333
317 317 317 317 317 317 317 317 317 316 316 315 314 315 314 314 316 319 323 322 321 323 322 323 323 322 314 320 327 328 356 333 327 328 328 325 322 322 325 328 327 327 327 326 324 324 323 322 320 316 314 321 321 320 319 320 323 325 320 315 318 314 321 330 336 335 330 335 339 332 320 325 330 336 341 345 343 343 332 331 331 331 332 333 331 332 332 333
317 317 317 317 317 317 317 316 316 315 315 315 313 314 315 316 319 322 323 323 324 323 324 319 319 320 320 318 320 338 324 322 322 330 332 330 327 324 326 324 324 325 325 323 325 324 322 320 315 315 315 318 317 318 317 316 316 320 317 314 314 316 321 324 331 333 337 335 338 331 320 327 330 335 341 345 345 342 337 331 331 331 332 333 331 332 332 333
317 317 317 317 317 317 317 315 315 315 314 314 313 314 316 318 321 324 324 324 324 323 322 320 323 317 309 322 325 317 317 321 326 328 328 330 327 325 324 321 320 321 323 322 323 322 321 316 316 315 316 313 319 319 313 311 311 314 317 314 316 314 317 320 329 334 335 334 327 330 325 326 330 335 339 343 343 342 337 331 331 331 332 333 332 333 332 332
317 317 317 317 317 317 316 315 315 315 314 313 313 313 314 318 321 321 323 322 324 321 322 324 324 319 311 318 315 316 320 320 324 327 325 328 325 324 323 319 319 320 319 317 320 315 318 312 314 308 311 312 316 315 309 306 310 310 313 313 314 316 318 320 321 327 332 333 328 328 326 328 331 333 337 341 344 340 335 334 332 331 331 332 330 332 332 332
317 317 316 317 316 316 316 316 315 314 314 313 314 316 317 317 319 322 324 319 317 314 310 311 315 306 304 311 319 320 317 322 326 325 321 323 325 324 322 322 320 316 312 312 313 313 314 310 311 307 304 308 311 314 312 313 315 313 314 314 315 313 317 321 327 332 333 328 327 325 324 328 329 332 335 339 341 337 334 334 339 332 332 332 330 332 332 333
317 317 317 316 316 316 316 315 314 313 312 313 321 324 320 317 315 314 320 321 315 314 315 314 313 315 314 317 317 321 324 326 319 320 323 325 325 320 318 317 315 315 311 307 311 311 314 304 303 302 305 308 311 315 316 316 316 316 316 315 314 314 318 325 327 331 333 327 325 325 327 326 329 332 336 336 337 336 335 334 334 338 333 332 330 332 332 333
317 316 316 316 315 315 315 315 314 312 312 314 316 317 315 313 306 306 314 317 319 318 315 316 313 311 313 318 320 320 318 317 321 317 322 327 325 318 314 314 311 307 309 311 310 313 312 303 303 306 308 309 311 314 316 316 316 315 315 314 313 314 313 321 325 330 331 326 322 327 325 325 329 332 335 336 336 334 334 333 337 336 334 332 332 332 332 333
317 316 316 315 314 314 314 314 312 312 310 314 316 315 318 316 315 316 313 305 315 316 314 315 316 312 316 317 322 323 320 314 315 317 323 322 320 312 313 312 309 305 309 310 310 307 305 303 305 309 311 311 312 313 315 315 315 315 313 313 313 313 316 322 326 329 326 324 323 325 322 325 329 334 336 337 336 336 336 335 337 336 336 335 333 332 332 332
316 316 315 315 314 313 313 312 311 309 315 317 314 314 315 319 320 320 316 309 305 314 313 311 311 311 313 318 320 321 312 311 310 315 319 319 318 313 315 310 309 308 309 309 305 304 301 305 309 311 313 311 310 311 312 315 316 313 313 312 310 314 313 310 320 326 326 323 319 324 321 323 329 331 329 329 334 335 339 340 341 342 342 338 334 333 332 331
316 316 315 314 314 313 312 310 308 313 314 319 317 317 322 321 320 318 312 304 303 309 312 312 311 311 313 313 317 315 311 313 314 313 323 317 314 315 315 311 309 308 306 307 308 305 304 309 312 311 312 311 308 310 310 311 310 314 314 313 313 313 315 314 319 322 324 324 325 322 319 317 319 317 318 326 328 336 337 337 336 341 339 338 341 337 336 332
316 316 316 315 313 312 310 307 311 317 321 318 316 322 320 321 320 320 310 306 305 306 315 311 312 312 315 323 320 311 312 314 315 320 321 317 316 314 313 315 311 306 307 308 308 307 307 312 313 310 311 311 310 311 312 313 310 312 315 315 315 315 314 315 324 318 318 316 321 319 310 311 316 315 316 321 329 334 336 337 336 335 338 340 341 338 336 339
316 315 315 314 313 312 307 309 317 320 319 316 318 320 320 321 321 318 310 302 297 304 308 302 312 306 319 313 315 312 312 307 314 320 321 318 323 315 314 312 312 306 308 308 307 308 308 312 312 309 310 310 312 314 316 316 312 310 312 317 317 316 315 315 315 315 309 308 317 322 309 306 322 314 318 322 326 330 335 335 335 337 335 338 337 338 336 334
315 315 314 313 313 309 314 316 321 318 314 315 320 321 320 321 328 318 305 296 293 304 301 307 306 308 313 313 312 312 298 303 314 319 318 320 315 320 310 308 311 312 312 311 307 304 310 310 310 310 310 312 312 311 315 315 312 309 315 317 317 316 314 314 314 312 311 316 319 320 315 309 310 317 325 329 327 327 330 333 335 337 338 337 340 343 339 335
315 314 313 312 311 310 318 319 318 317 316 319 322 321 321 325 322 316 303 290 289 306 300 303 307 315 312 313 313 307 307 311 305 313 318 318 317 314 311 308 308 308 311 309 299 308 309 308 309 308 310 312 310 314 315 317 311 312 316 317 315 315 315 315 313 311 312 312 308 313 317 311 311 317 325 327 322 322 325 329 331 336 338 338 339 340 342 338
314 314 313 312 310 309 314 316 318 316 320 321 322 320 321 325 315 305 298 289 300 303 314 302 314 310 309 312 308 309 309 310 304 311 316 316 318 314 307 309 311 310 312 311 304 308 310 310 311 313 312 310 314 315 315 315 311 314 316 316 317 317 317 316 313 311 311 308 305 309 314 309 309 318 320 324 324 323 325 328 332 335 336 339 339 340 341 341
314 313 312 310 312 316 315 318 318 321 321 321 321 323 320 314 308 297 293 287 304 296 306 304 304 303 308 304 305 307 306 308 309 311 312 310 313 314 313 315 309 310 309 312 310 310 311 317 320 314 312 314 315 316 315 315 315 318 316 314 313 314 313 314 314 313 309 303 306 311 314 313 306 315 317 319 319 321 325 329 332 335 338 337 339 339 342 343
312 311 310 310 317 323 322 316 321 324 322 323 321 317 315 311 300 294 287 296 303 302 307 303 302 308 303 301 300 306 305 307 308 309 306 309 308 311 310 308 314 309 308 308 307 309 311 313 314 316 318 317 316 312 315 317 317 315 312 311 311 309 311 310 309 311 302 300 308 312 314 313 305 312 319 323 326 325 326 326 330 333 335 340 340 342 345 346
310 309 310 312 320 321 316 315 321 324 324 322 319 314 310 298 301 292 292 306 293 298 300 301 305 304 303 304 303 302 302 306 307 306 304 304 303 303 305 303 306 300 300 303 302 308 307 309 313 314 320 315 312 310 312 315 315 313 311 310 303 302 303 299 304 300 300 300 309 312 314 311 311 316 321 324 326 328 329 328 330 333 335 341 344 345 345 346
309 308 307 310 314 318 320 323 327 326 322 319 317 314 304 295 288 296 297 299 294 302 300 306 303 303 303 302 301 303 306 302 307 306 306 305 303 303 308 307 309 305 298 303 303 302 304 311 311 312 314 316 314 306 306 307 311 310 307 306 302 298 297 294 299 303 302 306 311 311 318 310 315 318 324 324 325 328 329 332 334 335 337 338 341 342 344 345
308 309 315 321 319 321 323 328 326 325 322 319 314 309 303 293 290 304 297 298 298 303 304 303 303 303 303 298 302 303 300 306 305 304 306 303 303 301 304 307 309 307 305 305 301 301 297 299 305 308 306 313 312 310 310 307 309 309 312 308 304 303 300 295 298 296 299 302 307 314 309 307 309 314 325 325 327 329 330 333 337 338 340 342 342 344 345 343
308 311 317 323 325 324 324 326 328 325 321 316 310 304 294 293 298 295 297 299 300 303 301 305 302 301 300 302 304 305 305 301 305 304 303 302 300 302 301 303 308 308 307 300 304 303 301 301 308 312 311 313 310 313 314 309 307 310 311 312 306 304 309 300 303 302 302 303 303 306 309 313 314 322 325 327 328 328 329 330 334 334 336 341 339 340 343 344
312 327 325 323 323 327 331 329 325 324 319 312 305 299 294 298 296 300 299 304 303 300 301 303 302 299 299 300 303 303 307 303 304 303 302 303 303 301 306 306 305 307 305 300 303 298 302 299 309 310 310 309 311 314 313 311 299 307 308 304 306 313 309 305 305 306 307 304 302 311 310 314 320 321 323 325 325 325 327 328 329 331 333 338 338 341 342 344
321 323 323 326 325 321 326 325 325 320 318 310 302 297 300 301 303 303 305 302 303 303 301 295 297 297 296 295 299 301 303 304 303 303 301 304 300 304 304 306 309 307 308 305 302 306 299 298 306 305 304 309 313 314 312 311 311 307 302 305 311 313 311 306 298 303 300 297 303 310 306 308 310 306 322 321 321 321 323 324 328 329 330 331 332 336 340 341
321 320 319 316 318 322 325 325 322 320 313 307 300 300 304 300 304 304 305 304 303 303 299 297 297 301 296 298 296 300 303 299 301 302 299 303 298 306 304 304 308 308 307 310 303 304 306 296 302 306 306 308 311 309 307 311 313 308 306 311 304 300 299 305 303 295 296 296 301 308 309 308 311 309 317 316 318 318 321 324 325 326 328 329 331 333 336 339
322 318 315 317 320 321 324 327 320 317 311 303 299 301 302 303 304 304 305 306 306 303 298 299 297 300 300 297 299 301 302 297 301 300 298 301 297 303 304 305 305 308 309 308 305 306 307 297 299 306 305 307 308 306 299 303 309 311 312 308 311 307 304 302 303 304 303 297 299 303 307 304 314 316 316 318 321 319 320 321 323 326 327 328 329 331 333 336
316 314 311 319 321 321 327 322 316 312 307 299 300 301 305 302 304 306 307 306 303 303 300 299 301 298 299 299 301 298 301 300 299 300 300 301 300 304 303 307 304 306 308 309 306 309 303 308 296 302 308 306 299 303 301 303 302 304 305 304 307 307 310 308 307 304 302 300 300 299 299 305 313 322 319 318 320 321 320 320 321 324 327 328 329 330 332 334
321 314 313 321 321 322 322 316 310 306 303 304 306 303 304 303 305 305 307 307 306 308 304 302 302 299 300 300 299 302 300 301 300 298 299 300 301 297 304 304 305 304 308 308 306 307 304 303 298 300 301 300 301 306 306 307 307 305 305 304 306 304 302 299 299 307 305 303 299 301 299 307 316 324 320 319 321 321 321 321 322 324 326 327 328 330 330 332
313 308 310 320 321 319 314 306 307 312 307 303 301 304 303 308 305 305 306 307 306 303 306 304 304 302 301 300 301 300 300 299 300 299 301 299 302 302 303 307 306 307 305 303 304 307 306 305 303 298 300 300 305 307 310 310 309 308 307 306 308 307 306 302 295 301 305 307 310 308 303 304 319 323 321 321 321 321 322 322 321 324 325 326 327 328 329 331
312 310 318 319 321 317 311 305 310 307 305 305 307 306 308 306 305 305 305 305 303 305 303 303 303 303 303 302 301 301 301 298 300 299 301 301 301 303 306 308 308 308 307 305 308 307 312 302 299 300 303 305 307 308 309 309 308 306 307 308 306 304 305 304 303 303 302 307 305 305 302 305 317 322 322 322 322 322 323 322 322 323 323 325 326 325 326 328
315 311 312 316 319 317 309 302 301 304 304 306 306 305 306 306 306 304 305 305 305 304 303 302 303 305 303 304 302 300 303 296 300 300 300 302 300 306 307 307 308 304 305 303 303 306 300 305 302 297 296 298 301 303 304 307 307 304 304 307 308 308 307 306 305 308 302 303 306 304 297 304 316 322 321 320 320 320 320 321 322 321 322 324 324 324 324 327
315 312 312 313 316 314 305 308 305 305 304 303 303 302 303 304 306 306 306 305 307 306 304 302 304 304 304 305 303 304 303 301 298 303 302 301 301 305 305 305 306 304 306 308 316 309 304 303 302 295 292 290 290 291 294 297 301 304 306 306 306 305 304 304 301 305 297 305 308 304 303 310 316 319 318 319 319 319 320 321 322 322 323 322 324 324 323 324
311 304 308 311 312 311 311 311 309 306 303 304 303 304 304 302 305 306 307 305 307 306 306 305 305 305 303 302 301 301 301 304 301 300 302 300 301 303 305 305 304 304 311 317 310 308 304 304 306 303 299 297 298 301 303 305 303 300 302 304 304 306 306 306 304 302 300 304 305 309 308 308 311 314 314 315 317 316 317 319 319 321 321 322 324 323 323 324
314 306 307 305 310 309 306 309 307 307 305 307 304 303 303 303 304 304 306 303 306 306 305 305 303 303 302 302 300 300 302 301 304 302 301 301 302 303 305 305 304 306 314 312 307 306 305 301 303 304 302 301 302 302 304 304 302 302 302 302 304 304 305 304 301 301 308 303 302 311 312 308 310 313 314 315 316 317 317 318 319 320 321 322 322 323 326 324
306 308 311 314 305 303 306 304 308 305 305 306 305 305 302 302 302 303 305 305 306 306 303 306 304 305 304 303 303 300 301 302 301 300 303 302 301 302 302 304 303 305 307 304 307 303 302 298 302 301 302 302 302 302 303 303 302 303 303 302 302 303 303 302 303 304 306 303 302 310 312 309 311 314 315 316 317 317 317 318 319 321 322 323 323 323 323 323
312 311 309 311 306 308 307 305 307 306 305 306 303 305 302 303 302 303 303 304 304 305 305 302 301 304 304 305 305 303 304 298 300 304 302 301 301 301 300 301 303 305 304 304 304 307 303 298 302 301 300 300 302 302 303 302 302 302 301 301 302 302 302 303 304 306 307 310 312 311 312 310 313 314 315 316 318 318 319 320 320 320 320 322 322 322 322 323
309 310 309 310 312 308 308 308 306 307 302 305 303 302 304 302 301 303 304 305 302 301 305 303 302 303 304 305 307 307 303 305 306 301 304 304 302 304 303 302 301 303 304 303 303 305 299 299 303 301 299 298 300 301 301 301 300 299 301 301 301 302 303 304 305 307 309 310 312 312 310 310 315 317 317 319 320 320 319 318 318 320 320 320 321 321 322 322
317 317 317 311 308 306 308 308 307 306 303 306 305 302 305 303 302 304 302 307 305 303 305 303 304 305 306 306 306 305 307 307 308 307 306 305 302 305 303 303 304 302 302 301 302 303 301 299 302 301 296 296 299 299 300 300 299 299 299 300 300 299 299 302 302 307 306 307 309 309 307 307 313 316 317 318 318 318 317 318 318 319 319 320 319 319 321 322
322 323 321 314 307 308 306 305 307 307 304 306 306 305 304 302 304 306 302 304 307 307 306 306 306 306 305 305 303 304 307 307 307 307 307 307 308 307 307 305 305 304 302 302 304 301 301 299 298 297 293 294 299 300 298 298 297 294 295 298 300 301 302 303 305 309 309 309 308 304 307 312 314 316 315 315 316 317 317 317 317 318 319 319 319 319 320 321
Wind_Speed
18 18 18 17 16 16 16 16 16 15 15 15 15 15 15 15 15 15 14 15 15 14 14 14 13 13 13 13 13 13 12 11 12 11 13 19 9 7 5 12 14 12 11 10 11 12 12 13 14 11 9 8 8 8 7 8 5 4 3 2 3 3 3 2 4 2 5 8 8 5 6 8 7 5 5 5 4 6 9 9 12 16 14 18 20 21 21 20
18 17 18 18 17 17 16 16 16 16 15 15 15 15 15 15 15 15 15 15 16 16 14 14 14 13 13 12 13 13 11 11 13 14 21 15 14 11 6 12 13 11 11 12 13 14 12 12 11 11 9 9 7 9 7 5 5 5 1 1 2 1 1 1 4 11 6 8 10 9 6 6 8 8 6 6 13 12 12 10 13 16 20 22 21 21 21 20
18 18 17 17 17 17 17 17 17 16 16 15 15 15 15 15 16 15 15 16 16 16 15 14 14 14 13 13 12 12 11 13 13 18 22 19 10 11 10 11 13 12 14 14 14 13 12 10 10 11 9 9 8 8 7 3 4 4 1 4 2 3 5 2 4 6 9 12 12 10 5 4 7 3 3 6 11 13 10 13 15 19 23 22 22 21 20 19
18 18 18 18 18 17 17 18 17 17 17 17 16 15 15 16 16 16 16 16 16 16 16 15 14 13 14 13 11 11 11 12 9 1 5 16 16 14 13 12 12 13 15 16 13 12 11 9 10 11 9 9 6 8 7 5 5 3 3 3 2 7 4 5 7 9 11 9 9 10 7 7 2 2 3 3 12 10 10 12 17 22 23 23 22 21 19 19
17 18 18 17 17 18 18 18 19 18 18 17 17 16 16 16 16 17 17 17 17 17 16 15 14 13 12 12 11 10 9 8 6 7 7 12 14 14 14 14 11 14 17 16 15 11 11 11 9 10 10 8 7 7 8 6 5 4 4 3 4 7 6 7 10 11 8 7 8 7 9 4 2 4 9 7 5 7 9 15 18 20 23 23 23 21 19 19
18 18 18 18 17 17 17 18 19 19 19 18 18 17 17 17 17 17 17 17 17 17 17 15 13 13 13 10 11 9 6 1 2 5 4 5 8 9 12 11 13 15 16 16 14 11 12 11 11 9 8 9 8 7 5 7 9 4 5 0 4 12 8 9 12 12 9 8 9 9 5 5 3 4 4 1 1 4 10 14 18 19 21 21 20 20 20 19
19 19 18 19 18 17 17 18 18 19 19 19 19 18 18 18 18 17 17 17 18 17 17 16 14 13 12 12 11 8 9 11 6 5 10 7 7 9 9 11 13 14 15 14 14 12 12 11 11 9 9 10 9 8 8 9 5 9 0 4 7 15 15 13 14 14 10 10 9 7 4 4 6 5 0 3 7 11 13 12 18 19 20 20 21 20 19 19
19 19 19 18 18 18 18 18 18 19 20 19 20 20 19 19 18 18 18 18 18 18 17 15 13 11 10 9 7 8 10 9 8 9 10 10 9 10 10 10 14 14 14 16 13 13 10 13 11 10 10 8 7 10 7 10 11 7 2 7 8 16 13 14 15 13 12 10 9 6 7 8 4 2 1 4 5 14 14 16 19 19 20 19 20 20 19 19
18 19 18 18 19 19 19 18 18 18 19 19 19 20 20 20 20 19 18 18 18 18 16 14 12 10 7 6 7 9 6 7 8 12 13 12 10 11 13 11 15 14 12 12 15 12 10 10 12 11 8 12 10 9 8 8 6 4 3 3 12 18 16 17 17 14 13 8 9 7 6 4 2 3 1 8 10 3 15 17 18 20 19 19 19 19 18 17
18 19 18 19 19 19 19 20 20 19 19 19 18 21 21 21 20 20 19 18 17 17 16 13 10 8 8 6 7 8 6 9 11 10 12 12 11 12 14 11 16 14 12 12 13 13 12 8 12 10 14 14 13 10 10 9 3 12 8 8 12 17 16 16 18 15 13 10 9 9 8 5 4 3 1 7 11 7 13 17 17 19 19 18 18 17 16 18
18 18 18 18 20 20 20 20 21 20 20 19 19 22 22 22 22 21 19 18 17 17 15 12 8 7 7 8 7 5 6 7 8 9 10 13 13 13 14 13 16 14 13 10 12 12 10 13 7 9 7 9 8 8 7 6 11 12 11 10 10 9 18 13 15 16 13 8 9 9 9 7 5 2 2 6 7 6 11 17 18 17 17 17 18 17 15 15
17 18 19 19 20 21 21 21 21 21 20 21 21 20 23 22 22 20 19 18 17 15 13 11 9 6 8 9 10 6 1 4 5 9 9 11 11 12 13 13 15 14 11 10 11 10 11 11 10 7 5 5 7 4 9 8 10 7 7 9 9 9 14 14 15 11 9 8 10 10 11 5 3 3 6 7 7 10 12 16 18 18 16 17 17 15 13 14
18 18 18 19 19 19 21 21 20 23 22 18 17 18 22 23 21 20 18 17 14 13 12 10 8 6 7 8 12 11 6 5 6 9 9 8 9 10 11 11 15 13 11 11 8 9 9 11 9 11 12 9 11 5 8 9 8 6 9 7 8 9 11 11 11 5 6 9 13 10 5 5 7 5 9 9 7 11 15 15 16 16 15 16 16 14 14 14
19 19 18 18 18 19 20 20 20 19 17 18 17 18 21 22 21 19 18 17 13 8 8 10 8 8 7 9 4 9 1 5 7 9 10 9 11 11 11 11 12 12 10 12 8 7 10 9 9 11 10 12 9 9 9 5 7 8 7 8 5 8 8 10 13 11 9 10 14 6 3 6 8 7 7 8 7 13 14 16 16 16 16 15 15 14 14 15
16 18 18 17 18 19 19 18 16 16 16 19 18 18 22 20 20 18 16 10 6 5 7 6 8 6 7 6 7 4 9 5 9 9 9 11 11 11 12 11 12 12 10 9 7 4 6 7 8 9 8 11 14 10 7 8 6 8 8 8 7 7 6 13 15 15 13 9 13 8 3 6 10 10 10 8 8 8 13 14 16 16 16 16 15 14 15 14
15 16 16 18 18 19 18 16 15 15 18 18 18 19 21 19 17 17 10 9 3 6 7 6 8 10 8 9 4 9 9 9 10 9 8 10 11 8 10 11 11 10 6 5 4 4 5 6 9 8 9 11 11 6 7 7 9 9 9 6 7 6 8 6 6 8 11 14 5 5 3 7 7 11 12 9 7 5 6 15 15 16 19 16 14 14 14 14
15 16 16 17 19 19 19 16 15 16 16 17 19 20 17 16 14 11 10 9 4 6 7 5 8 10 6 4 3 9 9 12 7 9 9 9 7 8 11 11 7 8 6 5 7 5 6 7 6 9 10 10 7 7 8 8 9 9 9 7 6 8 10 5 6 3 11 11 10 9 4 7 7 12 14 8 6 6 5 13 14 15 15 15 14 14 15 13
16 16 16 17 19 20 18 15 15 15 15 16 18 18 15 15 15 14 7 5 6 8 8 11 10 7 13 12 10 10 9 10 10 9 9 7 10 8 8 9 8 8 6 9 8 7 7 8 7 8 8 10 10 10 9 8 9 9 9 8 7 8 4 13 8 9 7 6 9 10 8 9 9 12 12 9 6 4 5 5 14 14 16 15 15 14 16 14
18 17 17 16 16 17 17 15 13 13 14 20 22 20 16 15 9 8 6 6 6 4 6 7 9 9 8 10 12 9 11 10 10 9 11 10 8 9 8 7 7 9 9 8 8 11 8 8 8 9 11 11 11 11 11 11 8 9 10 8 8 5 6 3 9 11 11 10 7 7 7 7 11 10 9 6 5 4 2 4 8 14 14 15 15 14 15 14
20 17 15 15 14 15 14 14 12 11 11 13 8 5 5 4 5 5 9 10 13 12 10 3 15 11 5 9 13 10 9 14 11 11 9 8 6 10 11 9 9 9 9 9 9 12 7 9 10 11 10 11 14 14 13 15 14 9 8 9 7 7 10 14 11 13 10 9 8 8 6 6 2 7 9 7 6 3 1 5 9 9 13 15 14 16 16 15
17 16 15 14 13 12 13 11 11 9 7 8 9 6 5 6 7 2 5 11 14 15 16 11 12 18 7 2 9 13 11 11 8 10 10 7 10 10 11 10 10 10 11 12 9 8 10 10 11 12 14 14 13 14 15 16 12 11 8 6 7 7 6 12 11 13 11 6 8 9 8 8 7 6 6 8 9 7 6 11 10 10 11 13 16 17 17 15
17 16 15 13 12 12 12 10 10 8 10 6 6 7 9 7 5 6 7 7 12 16 14 14 11 13 9 11 12 6 7 9 12 11 9 11 11 11 12 11 11 10 11 13 10 9 10 11 11 13 13 15 14 13 15 12 9 9 10 7 7 8 6 13 12 12 10 7 11 11 12 9 7 6 4 5 6 7 9 10 8 11 12 9 13 16 16 15
19 17 15 13 11 11 10 10 8 7 4 6 7 11 11 8 6 5 8 9 12 11 14 12 11 8 8 6 5 9 10 11 11 13 12 13 12 14 12 11 11 11 12 14 11 9 10 11 14 13 11 14 15 14 12 11 13 10 7 7 8 6 8 7 10 13 9 6 11 13 10 9 6 5 5 2 2 2 1 1 6 11 6 9 12 12 15 16
18 18 17 14 12 11 10 8 11 7 7 10 12 12 8 5 6 8 8 7 9 7 11 12 11 8 9 9 5 10 12 9 10 14 12 12 11 10 10 12 12 12 11 15 15 10 10 10 13 15 13 12 13 12 13 11 9 7 9 6 7 9 11 9 11 12 14 9 10 12 9 10 10 9 3 3 4 6 3 5 6 3 5 8 12 10 11 15
18 17 17 15 12 11 9 9 4 7 9 11 12 12 2 3 5 7 7 7 8 9 9 8 7 9 9 8 10 11 11 7 11 11 12 12 13 9 10 8 9 11 13 14 14 13 12 13 12 14 13 12 14 13 11 7 8 8 10 7 6 8 9 13 22 14 8 10 11 14 8 5 7 11 7 2 5 5 9 7 8 5 3 8 5 4 12 10
19 17 19 14 14 12 7 3 8 10 10 8 4 2 3 5 6 4 8 6 8 5 9 11 9 7 3 13 8 10 10 11 10 11 11 12 12 11 5 8 7 10 14 13 13 9 9 12 11 14 14 12 10 7 8 7 8 9 10 9 9 9 11 11 14 12 8 8 13 16 5 6 5 8 8 8 6 8 2 3 4 8 2 8 5 8 10 13
19 18 16 14 12 8 6 4 11 10 7 5 1 3 4 4 5 9 5 6 9 9 7 10 11 4 7 9 9 7 10 9 10 13 13 11 14 8 11 7 9 10 9 8 7 10 11 12 13 14 11 9 9 8 11 12 9 9 7 16 11 10 12 9 10 9 7 4 11 18 8 7 3 2 1 2 6 13 4 4 3 6 9 9 4 8 12 12
19 18 15 13 9 5 5 8 11 10 7 5 6 4 6 5 4 5 5 5 4 8 7 8 1 4 8 10 11 14 5 15 10 14 9 12 15 11 12 8 9 12 12 10 10 5 13 13 14 14 14 11 9 10 10 11 11 9 12 11 12 11 9 11 11 8 3 4 7 10 10 7 3 0 1 1 3 10 11 7 5 5 3 3 4 5 10 11
18 18 16 14 13 11 8 5 8 12 9 8 7 5 3 2 7 5 4 6 5 3 5 7 1 6 7 12 13 15 9 8 8 14 10 10 12 9 11 10 12 13 12 10 9 8 10 14 10 10 9 9 9 10 14 12 10 16 3 12 9 14 10 10 7 3 6 6 7 11 12 5 5 4 5 4 4 4 6 10 11 8 9 5 4 5 4 9
18 17 15 14 13 5 4 5 7 10 7 5 6 6 4 6 7 7 5 4 4 5 8 5 9 9 7 13 13 15 13 10 10 12 11 9 13 13 11 12 14 12 14 10 14 10 11 9 8 10 11 10 10 12 12 9 10 12 4 8 1 6 9 9 6 5 7 8 7 10 13 11 5 5 5 4 4 2 3 5 7 8 8 9 7 9 8 7
18 15 12 9 6 5 6 9 10 10 3 3 5 6 6 5 6 6 6 6 5 7 6 8 9 11 12 14 12 12 11 8 10 8 10 7 10 11 6 9 8 7 11 10 11 12 10 8 6 6 12 8 8 9 11 11 10 13 10 9 5 6 7 8 9 10 9 8 9 11 14 7 5 6 4 6 8 4 2 3 5 7 7 6 8 9 3 3
17 16 11 6 8 9 6 7 10 6 5 5 5 6 5 5 5 4 2 3 10 7 9 8 11 11 13 13 12 14 12 11 5 9 7 9 10 11 9 9 9 8 10 9 11 4 7 8 4 6 8 9 8 11 6 4 3 8 9 10 9 8 8 8 7 11 10 8 8 10 13 10 8 7 7 9 9 8 5 4 5 3 2 3 3 5 5 4
18 14 13 13 10 7 12 10 6 5 5 5 7 5 3 4 3 3 4 2 2 6 7 9 12 13 13 15 12 14 14 11 11 10 10 11 10 12 13 15 10 11 8 11 10 9 8 6 9 13 9 10 12 10 6 9 8 11 11 11 9 10 9 8 9 7 8 11 9 4 16 9 8 9 8 10 8 10 9 9 11 8 2 3 3 4 4 3
18 13 8 6 9 11 9 9 4 6 6 4 6 5 7 5 5 12 3 6 3 7 2 9 14 13 15 14 13 13 11 10 13 11 13 9 10 11 10 15 12 14 7 8 11 12 10 11 12 15 9 11 8 11 3 3 11 12 11 9 10 11 9 10 9 11 10 8 9 13 7 8 9 6 10 9 11 11 10 13 10 9 7 7 6 4 3 5
26 15 11 10 10 12 13 12 7 4 7 5 3 5 5 5 7 2 4 5 5 4 6 7 11 14 15 15 9 13 7 10 11 12 13 10 10 10 12 10 12 10 8 4 10 7 15 11 11 11 3 9 13 14 11 5 5 12 9 6 10 11 8 10 8 10 9 8 8 9 6 7 7 9 9 11 13 13 14 13 12 10 8 5 6 5 5 5
16 5 8 6 8 10 10 8 5 6 5 6 4 3 6 7 4 1 5 11 7 5 9 10 9 11 7 4 8 10 10 6 12 14 11 11 3 11 12 11 11 3 4 6 5 9 9 10 15 12 6 10 16 14 11 7 7 10 12 12 9 8 11 8 7 10 11 10 5 10 12 12 12 9 12 13 13 15 16 16 12 10 8 6 6 4 4 5
7 7 7 10 11 4 6 6 5 5 6 7 5 4 5 6 3 8 5 9 8 8 7 7 9 9 11 8 7 9 8 5 7 10 6 6 6 8 5 4 7 2 2 6 8 11 9 8 12 11 11 6 13 14 7 10 11 6 12 10 11 16 13 6 5 4 10 8 8 11 18 14 11 9 9 9 14 14 14 13 13 10 11 11 10 9 5 6
8 10 7 2 5 5 5 5 6 5 6 4 3 7 6 3 3 5 2 4 6 6 6 5 4 5 8 5 9 10 8 7 7 8 6 7 5 3 3 2 5 4 6 6 9 7 9 8 8 9 7 10 6 3 8 14 15 12 6 13 5 8 12 7 4 7 5 11 10 10 15 13 9 8 6 13 12 13 14 13 12 11 10 11 10 9 8 7
7 8 6 5 4 6 8 5 6 6 6 3 3 9 2 4 2 7 2 9 5 9 1 4 5 4 2 5 5 9 9 9 10 9 7 8 4 3 6 5 2 7 5 9 8 9 8 5 8 10 11 11 7 8 10 11 12 12 8 11 10 9 7 9 7 7 8 6 13 9 10 5 6 4 8 9 7 12 15 14 14 12 10 10 10 10 10 7
7 6 3 6 5 5 6 7 5 5 4 2 5 4 4 3 5 3 5 5 4 3 2 2 8 5 5 8 9 8 10 8 8 5 3 2 5 2 5 2 5 8 8 8 10 8 6 3 6 6 8 10 9 9 11 11 12 10 9 10 9 8 8 7 8 10 7 8 8 14 9 4 2 2 6 11 14 12 15 13 11 9 9 11 11 11 9 9
8 9 6 5 5 3 8 8 8 3 4 4 8 1 5 7 2 5 3 3 3 2 7 7 7 3 5 7 6 5 7 7 5 6 6 6 5 4 4 4 3 7 6 10 8 4 4 6 1 6 8 6 7 15 1 2 5 5 9 5 3 6 8 8 10 9 11 7 5 9 9 7 6 3 3 9 11 15 15 15 12 11 11 10 9 11 11 9
9 6 4 2 3 5 7 7 4 5 6 7 2 4 5 6 5 3 3 5 7 3 8 5 3 7 3 3 1 6 2 5 4 8 3 3 8 8 5 5 5 4 7 4 8 12 6 6 5 5 8 9 5 9 4 5 2 10 7 11 7 9 9 5 6 9 11 6 14 11 13 6 5 6 8 7 9 14 14 13 12 12 12 11 10 11 11 11
6 8 7 7 5 7 7 5 7 10 1 4 6 5 3 1 5 1 3 3 5 2 3 2 1 3 2 1 2 8 1 6 6 5 7 7 8 7 6 9 10 7 6 7 11 11 11 5 2 4 6 5 5 2 2 4 7 4 8 6 2 1 3 9 4 9 5 8 10 9 7 7 7 6 7 10 9 10 11 11 11 12 11 10 10 11 11 10
9 2 7 5 4 6 8 0 6 4 5 4 5 6 1 6 7 3 4 2 7 2 4 7 6 11 5 4 7 3 8 4 4 2 3 5 5 6 8 8 12 8 9 6 7 9 6 3 5 1 5 4 3 3 9 6 5 8 8 8 6 8 9 11 8 5 5 3 12 5 7 7 7 6 8 8 8 11 11 10 10 11 9 10 9 9 10 10
9 5 2 6 5 6 6 2 4 1 2 5 5 6 7 6 4 8 9 7 7 5 4 3 7 4 6 5 4 7 5 0 3 8 9 6 6 1 6 9 11 9 8 8 9 7 4 5 3 4 8 9 7 6 8 8 9 4 7 3 6 5 7 7 2 2 3 3 10 8 9 8 8 6 8 9 10 10 11 13 13 12 9 9 10 10 9 10
6 4 3 2 3 7 2 2 5 3 3 1 3 5 6 1 6 2 8 3 6 2 8 2 3 4 5 5 5 7 8 6 7 3 3 6 4 3 5 7 9 9 10 11 11 6 4 4 6 3 5 5 1 8 4 5 7 9 8 3 5 6 6 5 4 5 3 8 9 8 16 14 12 11 11 11 10 11 10 9 9 11 14 12 10 10 10 10
7 7 0 2 3 1 2 2 3 4 3 3 2 1 2 5 5 4 2 4 3 6 1 8 3 5 4 3 2 3 1 4 8 8 4 7 6 6 5 5 7 8 11 9 6 5 0 5 7 4 3 6 6 6 4 8 6 13 11 9 4 5 6 6 5 3 7 3 8 8 16 18 15 15 13 12 11 10 9 9 9 7 8 12 13 12 12 12
3 2 3 4 3 3 4 4 8 4 3 4 4 3 4 3 1 1 5 1 4 1 8 6 5 5 1 3 4 1 1 5 3 7 6 5 5 5 6 1 5 2 7 2 4 2 5 5 5 4 5 2 6 7 9 7 15 8 6 4 4 7 5 6 8 7 9 4 8 12 12 15 15 14 15 13 10 10 10 9 9 9 9 9 10 11 12 13
6 3 2 3 6 2 4 6 7 5 6 8 4 5 3 6 5 6 9 4 2 3 4 1 3 1 2 2 7 4 3 3 4 3 2 5 4 6 5 5 4 2 0 4 1 3 4 5 6 1 3 3 5 4 2 6 4 5 6 1 6 3 5 7 7 6 5 12 14 14 15 15 12 14 13 12 8 8 9 9 7 5 8 10 9 10 11 12
7 7 6 2 3 2 2 6 2 2 7 1 2 5 4 1 5 3 4 9 3 2 4 2 1 0 1 2 4 6 3 4 8 6 3 1 3 3 3 6 5 2 3 2 4 4 2 4 5 4 5 3 4 4 4 5 4 4 4 2 4 5 5 2 3 3 6 11 14 17 17 14 11 13 13 10 9 7 6 7 8 9 8 7 10 11 11 11
8 5 3 6 4 4 5 2 2 1 4 3 1 4 1 5 8 7 9 9 8 6 6 7 7 5 4 7 8 8 5 4 4 7 3 5 4 4 4 4 4 2 1 1 3 1 2 1 2 5 5 7 6 4 7 5 4 6 9 5 5 7 7 5 6 4 5 11 15 14 13 11 11 12 11 9 10 8 8 6 5 6 7 9 10 9 10 11
8 8 7 5 5 3 6 2 2 5 3 6 6 5 5 6 4 4 4 4 6 8 6 4 4 3 7 8 10 10 9 8 8 6 6 2 1 2 3 3 2 4 2 3 2 5 3 3 1 3 6 8 7 5 6 4 5 8 11 10 9 7 8 2 1 7 9 0 18 13 9 11 11 12 13 12 11 10 9 7 6 7 6 5 5 6 8 6
Wind_Direction
340 340 338 340 340 338 336 335 335 333 333 332 330 329 327 325 323 322 322 319 317 319 317 314 314 313 311 310 307 309 307 291 293 264 240 242 260 36 94 109 148 173 192 215 219 207 200 213 220 218 224 227 211 236 239 220 226 253 276 316 357 268 1 330 30 83 151 134 135 175 174 134 128 178 184 183 227 177 137 122 134 140 133 127 133 135 138 140
339 337 338 339 338 338 335 334 332 331 331 331 329 326 324 322 321 319 316 316 315 313 314 313 311 313 310 306 308 309 306 287 280 268 247 244 230 207 142 152 153 173 190 210 212 207 208 205 211 205 223 220 201 237 211 216 180 248 151 189 282 95 75 122 110 121 141 144 152 162 148 138 143 175 168 168 162 158 136 134 136 125 118 125 137 138 141 144
337 338 337 337 337 335 334 332 331 330 330 329 327 325 322 320 319 317 314 312 312 311 310 311 311 308 309 304 306 305 289 291 274 258 255 231 184 161 161 158 165 178 197 202 213 212 215 201 202 209 214 237 185 231 182 185 214 179 193 238 115 104 83 52 127 107 128 145 140 134 130 140 140 211 147 176 160 142 144 135 137 129 130 138 139 143 143 146
336 336 336 337 336 335 333 331 330 328 327 327 326 324 322 320 317 315 313 311 309 308 308 307 308 309 304 305 305 306 284 284 267 70 34 163 159 164 162 164 175 192 207 222 217 219 221 221 208 211 215 235 199 242 188 170 230 87 186 274 97 146 102 119 123 122 135 135 126 117 138 138 131 42 24 308 158 157 136 146 141 136 140 139 145 144 147 147
335 335 335 335 335 333 332 330 329 327 326 326 325 323 321 319 317 314 313 310 307 304 304 305 304 305 304 302 302 284 291 277 96 78 103 134 154 162 163 170 179 199 207 220 241 231 223 227 211 209 236 222 230 219 238 169 171 180 237 259 143 155 142 134 121 122 115 116 111 109 117 136 232 56 34 31 293 129 145 146 140 141 141 144 145 147 147 147
336 335 335 334 334 333 331 329 328 326 325 324 323 322 320 318 315 313 311 308 304 302 300 300 302 301 302 305 293 276 271 109 66 107 137 100 136 143 159 167 190 205 209 225 240 222 223 228 223 211 217 244 224 231 210 244 171 242 210 192 234 149 141 135 128 122 124 120 111 107 155 163 112 66 45 87 210 191 151 138 140 141 143 144 145 148 149 152
336 335 334 333 333 333 331 329 326 324 323 322 322 320 319 317 314 312 310 306 302 299 297 295 297 300 305 298 270 262 246 267 312 125 125 150 134 149 157 178 189 209 211 222 236 224 216 229 221 215 224 227 231 228 218 234 159 252 89 206 288 140 132 140 125 130 129 126 112 122 155 111 114 98 289 256 186 250 139 151 140 143 145 146 148 152 153 153
334 333 332 332 331 331 330 328 325 323 322 321 319 319 318 315 312 311 308 304 300 296 293 290 290 295 310 293 263 232 225 260 121 132 142 138 157 156 164 184 191 199 214 220 226 222 205 230 216 215 234 230 195 217 209 234 189 205 266 319 254 110 123 130 130 127 119 108 109 124 128 118 110 94 233 275 291 173 153 150 143 147 150 151 151 153 155 156
333 332 332 331 330 329 328 326 324 322 320 320 318 317 316 314 311 309 306 302 298 294 290 287 284 286 288 287 276 282 267 100 123 140 150 158 159 165 175 177 190 194 209 228 243 228 224 224 233 225 220 219 234 230 208 238 188 155 234 306 279 125 139 132 121 121 125 119 136 128 99 118 110 90 336 300 303 235 145 144 148 149 151 154 155 153 156 158
331 332 331 330 329 328 327 325 323 321 319 318 316 316 315 312 310 307 304 300 295 291 287 281 275 279 273 256 260 263 122 117 116 145 153 146 153 161 186 184 177 190 206 223 234 227 219 220 232 209 256 288 306 245 178 222 116 274 191 245 271 118 121 127 126 128 127 128 147 127 134 142 117 112 172 281 273 220 140 146 152 152 154 156 154 154 158 159
331 329 329 329 327 327 325 323 322 320 319 316 316 314 313 311 307 306 301 295 290 284 278 268 262 256 248 236 264 252 95 159 133 137 151 143 154 171 181 183 179 192 214 225 228 219 225 249 221 251 228 252 231 245 208 224 160 211 215 222 238 115 126 136 121 121 128 135 150 131 114 104 89 81 200 231 252 183 154 152 154 155 155 155 151 152 161 159
329 329 327 326 326 324 323 322 319 319 317 316 314 313 311 308 307 302 298 291 286 280 266 255 230 242 262 264 250 263 137 100 152 139 144 156 165 178 185 184 184 203 215 228 223 210 235 239 262 253 243 86 252 276 230 210 186 232 193 232 219 152 123 131 118 120 137 131 152 129 102 82 157 213 204 234 224 166 168 157 159 156 159 152 151 154 167 154
326 325 324 324 322 322 320 320 317 316 316 312 312 309 309 307 304 299 294 293 284 265 250 232 223 241 266 255 239 240 249 138 149 139 149 167 173 184 187 194 192 215 235 248 208 225 237 248 268 275 271 278 302 301 10 185 202 227 247 242 210 175 113 101 86 118 136 150 151 158 120 187 214 196 172 214 205 180 172 166 161 157 160 154 152 157 161 156
324 323 323 321 319 317 316 317 316 315 314 310 310 309 307 306 300 294 292 289 282 276 227 216 227 238 248 256 280 166 251 146 143 155 168 170 177 182 191 200 200 214 239 252 258 214 230 243 262 269 292 274 228 65 235 214 201 216 230 237 225 208 128 158 142 183 150 155 169 168 129 187 187 217 217 202 220 188 176 170 163 160 159 156 154 161 155 160
316 321 321 317 318 315 314 313 312 313 312 310 308 307 307 302 296 292 297 283 249 262 195 202 228 245 224 253 262 104 1 291 171 178 176 178 182 176 197 195 202 216 222 238 257 247 252 257 248 251 252 250 272 280 278 215 196 233 233 220 208 214 137 167 158 166 142 169 181 164 160 182 185 184 199 198 206 214 176 176 167 163 162 156 155 166 155 160
315 315 314 318 315 317 311 312 312 312 311 309 306 305 303 295 290 291 301 291 306 176 184 210 213 228 292 267 95 118 203 210 197 180 180 197 189 184 191 182 200 213 255 235 284 257 226 255 235 237 254 258 248 249 240 216 203 203 227 225 216 207 143 117 325 156 142 145 166 214 149 147 190 181 177 184 219 230 206 179 167 170 160 156 159 167 157 160
317 316 317 315 317 314 316 313 310 309 309 306 308 300 296 293 287 304 291 273 214 190 206 246 193 194 248 94 233 201 185 212 166 195 164 219 174 192 178 180 194 207 203 211 224 300 203 228 218 249 252 258 225 231 242 219 202 197 205 234 239 222 163 121 136 8 157 154 162 175 187 189 157 177 174 175 197 209 241 184 173 169 165 156 163 169 155 166
317 316 316 314 312 314 312 308 305 307 308 306 302 294 290 283 294 286 250 225 207 198 232 243 280 241 245 255 227 210 174 202 177 169 196 148 209 149 186 184 187 200 192 209 211 246 185 217 213 236 218 226 233 214 235 212 213 195 189 214 226 232 105 147 153 230 182 169 155 184 178 178 157 165 176 171 196 219 235 242 175 176 165 164 167 169 159 168
318 318 312 307 305 307 309 305 304 309 313 312 292 273 264 261 263 249 251 181 197 198 217 192 197 201 3 189 209 191 188 164 177 162 193 173 201 153 191 208 190 190 200 216 183 224 177 226 204 232 224 209 222 225 220 247 229 203 198 204 217 216 81 168 134 169 165 154 152 170 166 145 165 156 170 165 185 198 221 281 290 183 167 167 172 168 162 167
319 310 306 303 303 300 303 303 306 310 324 320 309 242 224 224 183 208 214 221 229 229 327 168 198 246 226 163 187 176 160 138 184 193 171 200 161 174 186 196 186 209 211 212 174 211 176 214 212 213 225 221 218 226 237 243 260 296 205 181 218 219 150 153 156 156 160 158 166 150 130 132 137 167 146 139 191 193 130 306 268 260 170 175 177 166 164 165
313 312 309 308 303 303 301 306 303 304 316 295 287 274 251 322 306 65 171 211 228 245 259 266 213 233 297 123 157 145 140 174 193 185 192 164 209 169 178 196 182 204 214 218 205 183 211 220 221 218 223 235 224 222 235 242 259 259 252 196 209 211 201 139 153 153 166 174 152 145 131 120 200 204 149 131 176 168 180 208 226 254 193 181 178 164 163 166
319 315 312 310 308 305 305 301 305 308 294 263 263 249 259 349 347 342 292 281 214 224 235 248 247 243 258 290 135 168 170 171 200 177 179 187 177 204 148 210 185 206 199 219 210 184 212 224 222 227 218 233 245 224 226 255 247 247 269 194 195 223 125 128 145 166 165 199 139 153 126 154 188 169 150 162 198 172 186 221 237 205 207 190 182 165 161 171
321 315 313 312 310 303 304 303 299 315 286 210 222 245 261 333 325 345 303 281 284 223 220 217 237 254 240 28 180 184 206 198 189 180 170 208 170 222 154 211 193 216 200 212 210 195 212 219 231 231 226 227 235 229 223 223 240 233 208 225 203 165 135 165 160 160 169 179 147 136 124 123 185 155 116 9 304 77 360 188 350 330 286 204 190 171 163 172
319 320 318 314 314 313 304 312 292 255 228 223 247 259 299 334 328 322 295 272 289 209 201 208 228 214 225 190 144 211 212 181 204 176 162 207 203 205 213 202 204 216 211 206 220 211 218 221 214 232 233 227 237 219 219 210 227 250 243 215 210 188 177 141 165 166 188 174 142 131 124 139 153 136 135 240 228 151 212 222 127 95 294 284 301 188 171 170
319 320 320 318 317 316 315 312 255 226 214 219 241 256 317 305 316 331 313 284 236 244 165 216 213 202 209 205 157 223 215 198 216 167 162 209 205 185 228 190 233 209 223 200 219 230 222 231 199 222 228 219 233 223 204 220 214 216 229 234 200 217 231 126 144 165 184 140 169 155 143 143 139 137 133 181 166 161 168 177 145 192 186 277 272 260 175 176
321 319 322 318 316 319 316 297 217 212 214 231 230 134 271 327 352 340 281 264 248 158 139 214 165 187 245 186 180 219 210 221 185 166 170 205 233 212 187 232 213 209 222 207 215 226 236 218 219 208 220 207 233 249 190 215 231 225 193 221 212 202 253 141 166 179 197 188 173 196 198 135 165 108 137 166 124 163 230 156 137 134 199 262 182 252 203 180
321 319 320 318 315 314 281 315 347 318 253 189 92 267 354 310 55 297 270 219 244 144 190 99 184 137 248 152 198 195 213 197 171 161 179 188 226 229 248 211 186 256 230 218 192 218 236 229 213 211 213 193 213 222 207 199 233 224 223 178 220 198 218 223 219 195 213 133 159 196 222 118 126 354 40 75 167 138 158 115 112 144 178 213 225 212 218 182
318 319 318 314 305 255 297 315 307 287 328 41 285 13 280 30 299 252 262 275 218 155 157 152 226 103 241 166 205 194 321 114 189 145 205 165 234 192 236 238 215 214 227 211 218 183 216 225 223 205 201 191 205 219 234 195 214 230 229 192 187 220 227 233 241 223 215 161 205 208 204 130 130 220 126 141 190 149 150 162 218 168 211 208 242 240 246 186
318 317 317 313 302 260 263 265 307 289 339 347 14 308 302 202 259 283 294 288 63 213 16 163 112 209 207 164 209 220 163 156 246 133 194 196 208 254 203 237 266 223 234 210 229 199 204 246 192 233 184 207 218 203 251 201 209 236 21 339 209 192 219 243 243 235 247 214 228 210 187 136 111 120 126 122 133 121 120 144 172 180 183 200 235 250 246 276
316 315 316 319 296 202 205 223 242 267 315 351 335 311 282 262 246 237 192 272 134 182 188 82 210 169 194 173 204 206 238 159 234 147 179 200 180 239 272 340 293 232 221 182 236 226 194 199 154 226 208 203 192 227 224 214 221 248 155 250 333 218 200 211 238 251 263 242 244 246 146 145 124 150 134 135 114 101 136 113 129 165 193 175 173 226 214 215
312 307 310 315 273 322 316 252 223 239 52 330 280 267 290 272 257 259 219 62 243 90 152 148 179 169 196 189 198 179 224 223 144 158 156 184 214 225 258 212 250 257 239 177 227 245 272 161 166 204 260 222 243 208 188 240 193 233 183 223 173 206 229 222 219 219 239 241 234 233 125 175 160 146 134 137 134 119 87 99 112 137 173 178 175 187 195 38
308 305 296 267 289 330 273 293 356 323 343 307 289 277 245 268 219 218 257 97 265 107 243 170 179 186 189 196 207 170 210 162 171 216 190 190 198 197 202 233 178 210 216 187 206 176 256 207 153 213 222 276 221 251 149 12 274 249 258 181 192 195 204 215 220 217 219 238 218 223 136 84 74 111 128 128 137 143 146 138 135 106 112 115 122 128 102 142
308 301 286 252 265 248 254 267 320 338 286 261 270 264 313 18 273 221 228 185 116 166 196 212 158 190 189 194 191 186 212 192 154 207 202 188 205 194 192 240 164 238 208 187 210 154 226 211 169 229 190 194 258 217 180 202 203 230 236 207 197 211 187 222 219 230 222 220 226 198 77 81 108 114 120 116 114 112 113 99 127 122 129 74 53 79 123 109
301 304 290 223 202 232 268 303 306 295 285 261 259 267 130 182 241 277 139 228 83 219 186 199 150 196 189 202 164 207 176 201 165 188 200 179 202 181 201 233 204 201 265 191 217 164 206 190 204 220 188 126 255 240 188 335 191 220 262 195 200 220 195 199 217 210 213 219 188 126 129 152 152 125 134 114 119 118 110 101 97 101 88 81 60 70 104 104
306 285 237 254 228 239 244 251 258 235 261 261 248 52 290 267 239 283 162 167 204 149 201 216 174 196 187 212 161 207 197 172 187 177 201 171 192 194 195 194 220 299 204 254 195 203 225 219 172 202 312 168 223 239 286 269 261 191 228 235 225 223 249 239 189 217 211 202 172 166 92 125 97 139 122 125 122 106 105 100 101 84 83 75 66 52 108 101
307 256 179 233 224 229 216 219 208 226 233 254 284 233 296 275 351 168 4 334 72 256 191 194 202 194 187 170 207 213 152 225 176 214 192 188 35 216 186 168 193 79 336 213 350 235 210 241 146 138 231 221 205 232 216 279 236 166 199 218 239 257 263 267 286 258 238 199 106 101 113 118 146 136 136 129 113 101 81 78 74 87 101 91 74 87 59 118
295 284 202 228 229 136 161 191 181 220 233 260 259 277 201 228 315 291 110 277 355 330 260 203 186 196 178 177 209 185 154 241 199 198 164 107 78 12 124 49 71 58 30 355 293 290 228 120 124 153 192 156 224 220 250 221 247 286 199 212 230 248 267 282 282 296 234 219 121 146 132 138 145 132 150 112 113 101 97 89 78 71 68 59 56 55 75 161
303 288 302 357 75 154 169 174 195 217 258 268 298 282 297 292 100 290 25 258 174 294 189 246 122 249 153 175 204 208 140 221 177 207 166 190 98 335 344 356 30 273 335 309 297 305 287 129 180 166 200 189 169 316 222 254 253 260 341 343 268 202 208 216 251 257 232 214 131 143 140 140 152 144 143 135 121 103 92 83 76 63 56 61 55 49 31 73
275 278 259 151 164 144 163 168 216 240 260 263 240 266 309 30 350 4 72 305 40 357 253 117 269 123 304 191 208 214 180 218 176 216 202 180 159 7 6 13 23 11 301 301 289 306 269 157 144 175 217 162 197 202 223 219 231 251 263 252 238 299 249 200 218 266 278 189 119 139 155 89 54 83 116 88 67 106 95 83 73 60 42 49 52 38 29 45
265 252 296 153 199 115 161 183 234 245 261 288 325 305 354 22 23 12 149 298 100 1 106 286 269 148 277 237 229 202 187 207 201 200 184 80 71 24 356 140 320 316 337 283 290 287 286 182 174 145 191 131 211 184 216 203 202 198 231 239 211 223 339 259 208 233 233 268 155 147 140 115 315 336 128 125 126 106 96 91 78 67 60 48 42 41 37 30
280 263 204 234 196 171 197 201 232 273 308 268 227 340 11 9 349 97 59 301 82 184 17 259 189 277 276 156 214 207 200 195 195 84 25 136 276 168 81 349 338 301 305 277 272 278 281 170 226 148 192 193 208 188 243 55 2 266 208 250 244 197 230 213 219 205 242 253 124 133 105 113 148 185 171 99 101 104 103 98 94 87 79 68 48 42 34 30
288 275 108 156 71 195 219 246 283 199 174 231 51 1 81 293 262 29 163 169 322 58 126 352 319 177 346 255 250 193 214 66 92 150 223 117 54 9 49 319 350 292 294 286 274 46 359 340 326 205 192 202 97 90 34 3 325 325 287 200 215 228 218 227 240 216 222 87 117 111 125 126 123 161 129 96 94 104 102 97 101 93 82 71 58 51 41 38
244 257 76 251 146 232 240 308 261 245 205 72 197 148 278 136 2 331 304 18 261 353 64 281 140 65 208 314 158 225 217 110 342 103 90 93 50 22 22 359 354 349 320 3 333 42 337 323 349 33 67 73 140 177 201 237 305 280 221 337 208 199 324 275 331 22 354 93 92 124 96 140 159 171 118 108 113 100 89 92 99 95 90 79 69 61 54 52
291 264 138 77 177 229 254 188 282 261 81 88 321 65 337 20 360 59 28 93 343 95 81 149 193 319 114 351 189 210 78 94 3 131 123 45 81 3 21 25 356 39 13 21 351 4 289 193 311 138 211 166 131 234 235 221 277 237 213 215 331 349 326 356 1 353 310 280 102 138 126 142 140 138 130 128 138 115 105 99 92 88 85 89 78 68 67 56
303 301 285 128 206 223 275 331 251 212 126 175 195 172 178 157 16 357 352 40 331 69 231 73 6 164 170 205 57 58 175 215 186 45 52 82 95 67 53 20 19 44 32 5 334 334 324 328 247 264 222 183 191 173 198 200 202 251 255 275 8 292 330 332 307 50 285 49 68 111 112 117 138 155 145 146 123 109 114 111 107 92 78 78 78 79 68 66
288 300 311 169 216 207 223 290 343 52 73 80 230 56 329 101 148 114 318 93 339 38 9 46 153 296 80 221 165 207 160 129 191 123 189 120 120 56 40 44 35 27 4 346 350 335 355 330 57 43 359 50 360 313 349 159 187 228 222 266 291 344 310 316 354 313 20 49 91 124 136 141 147 148 129 117 119 111 105 99 95 113 117 99 93 82 71 66
304 297 347 20 308 58 56 284 82 330 23 78 340 14 217 33 51 143 48 304 87 344 33 358 10 265 98 279 133 175 334 180 99 187 171 105 74 88 44 50 62 27 344 325 18 318 271 264 139 178 307 8 3 350 4 327 257 209 222 184 238 346 339 315 258 212 70 236 103 126 140 140 143 144 137 125 120 116 112 112 107 82 78 101 103 101 89 77
259 302 342 47 323 355 328 73 333 146 118 234 70 244 340 204 246 48 142 33 283 169 300 149 257 348 74 343 144 116 125 91 204 104 87 75 139 150 143 113 87 40 310 24 354 8 316 271 142 203 168 294 352 351 341 349 351 140 67 69 189 235 290 289 262 302 22 343 129 149 150 132 138 136 130 126 127 127 109 98 102 116 125 108 84 84 80 77
317 336 52 27 309 20 13 10 349 46 57 14 101 310 101 352 92 21 350 69 324 68 304 249 212 97 6 26 32 16 85 182 85 88 131 185 184 162 145 145 96 221 242 29 59 31 310 285 350 155 304 187 220 264 244 320 68 39 87 207 16 349 252 238 294 360 51 100 136 134 131 131 133 133 117 103 92 103 108 103 66 52 104 96 88 75 71 72
19 352 18 313 224 359 286 214 211 240 84 265 268 44 14 126 77 135 88 338 88 95 233 18 180 158 41 277 155 173 160 356 155 187 105 316 119 291 42 42 85 72 311 92 344 84 288 37 324 330 315 255 212 228 281 273 353 289 254 68 291 306 330 354 311 85 87 140 125 131 132 126 131 126 110 112 105 87 93 78 89 54 22 98 110 96 72 58
338 0 344 334 314 53 296 316 228 288 159 175 138 97 200 53 71 22 50 2 28 44 4 64 39 68 45 83 67 72 77 54 43 89 117 28 16 51 349 119 345 62 331 220 255 41 303 211 145 279 266 262 206 217 236 249 266 271 268 226 199 235 240 205 234 153 202 124 126 138 137 134 142 123 124 120 124 123 110 89 84 88 58 37 34 54 70 54
348 354 317 321 293 117 270 116 22 268 61 54 29 55 18 88 61 326 85 22 33 24 31 31 59 53 90 90 67 49 37 44 52 43 32 59 53 151 139 49 309 10 86 40 78 275 228 273 270 184 236 253 192 198 237 238 254 250 245 244 198 231 256 290 98 41 9 237 153 163 142 139 138 141 140 143 143 130 110 92 80 75 64 70 82 76 55 48